Tracking 18843 objects as of 20-November-2017
HD Live streaming from Space Station
objects crossing your sky now

IRIDIUM 84

Track IRIDIUM 84 now!
10-day predictions
IRIDIUM 84 is classified as:


NORAD ID: 25530
Int'l Code: 1998-066D
Perigee: 783.3 km
Apogee: 786.3 km
Inclination: 86.4 °
Period: 100.4 minutes
Semi major axis: 7155 km
RCS: 3.8587 m2 (large)
Launch date: November 6, 1998
Source: United States (US)
Launch site: AIR FORCE WESTERN TEST RANGE (AFWTR)

Spare; stored in 667 km storage orbit, not raised to 780 km operational orbit until needed
aabbcc
Your satellite tracking list
Your tracking list is empty




NASA's NSSDC Master Catalog

Two Line Element Set (TLE):
1 25530U 98066D   17323.93795078 +.00000099 +00000-0 +28125-4 0  9998
2 25530 086.3933 284.8183 0002129 084.3812 275.7627 14.34216626999258
Source of the keplerian elements: AFSPC